User: anonymous   Login
Location: Dessau
(51.7984°N, 12.2168°E)
Time: 05:33:45
(UTC+02:00)
Language:

Hubble Space Telescope - Orbit

View from above orbital plane
View from above orbital plane
View from above satellite
View from above satellite

Ground track
Ground track

The orbit data is extracted from the following two-line orbital elements,

1 20580U 90037B   18174.37363427  .00000455  00000-0  16892-4 0  9994
2 20580  28.4701  74.2092 0002669 203.0207 103.1416 15.09055146346409
Epoch (UTC): 23 June 2018 08:58:02
Eccentricity: 0.0002669
inclination: 28.4701°
perigee height: 537 km
apogee height: 541 km
right ascension of ascending node: 74.2092°
argument of perigee: 203.0207°
revolutions per day: 15.09055146
mean anomaly at epoch: 103.1416°
orbit number at epoch: 34640

The dashed part of the orbit path shows where the satellite is in the earth's shadow,  

DLR